Vertical_Velocity
-1 -1 8 -5 -3 -9 8 -3 -3 6 -0 8 -6 8 9 3 3 12 -0 2 -2 -4 -2 1 1 16 2 -4 -2 -1 1 0 -2 -1 -1 -0 1 2
-0 3 15 -5 2 3 4 3 -2 2 -8 3 0 9 6 1 3 6 3 3 0 -3 4 2 -1 -5 0 -1 5 1 -3 2 -1 -1 -1 -1 -1 -1
-6 4 3 10 16 8 -3 3 -0 1 -1 -2 -3 -0 -1 1 -2 -0 2 1 5 1 -1 1 -1 1 4 -0 2 1 -2 -1 2 -0 -0 -0 1 1
-5 4 12 34 -2 -1 -0 6 2 2 5 -5 7 -2 -2 -3 -0 -8 6 -0 -1 -3 -4 -4 -9 -12 3 -2 3 -2 -4 -6 3 -2 -2 -1 1 -1
8 20 7 -1 1 -2 2 -1 3 4 6 13 11 -5 -1 -10 19 -13 -5 -1 -3 -4 -1 -2 -1 2 -1 2 -3 -2 -4 -3 2 -1 -1 -0 -1 -0
6 -4 -3 1 4 3 3 0 -0 -3 0 -3 -2 4 1 1 3 -2 13 -9 3 1 -2 -1 -1 -1 3 3 -2 -1 -3 -6 -1 -3 -2 -3 -3 -3
-4 8 -1 -2 -3 -1 0 0 2 2 -0 3 5 -1 -1 2 -3 1 -0 4 -2 4 8 -6 2 5 6 3 -2 2 -4 -1 -1 -1 -2 -2 -1 -2
0 -3 2 3 4 5 2 1 -3 1 1 0 1 -0 4 2 -2 -3 2 1 0 -5 -0 11 -1 1 5 3 3 3 -3 -4 -4 -4 -2 -2 -1 -2
1 2 1 1 3 4 5 6 2 3 5 -2 3 1 -0 0 3 1 0 -1 -5 -1 -3 10 4 2 1 -2 -1 -5 -4 -3 -3 -3 -3 -3 -4 -4
0 1 1 -2 -3 1 -4 3 0 -2 1 -1 3 3 3 1 1 0 -1 -1 -5 -12 -6 -6 -0 2 8 5 6 -1 -2 -3 -3 -3 -3 -3 -5 -6
-0 -1 2 3 -4 1 -1 -4 -5 3 7 5 4 3 5 -3 -4 -2 -2 1 7 -0 -8 -8 -5 -5 4 4 8 1 -3 -6 -5 -3 -3 -3 -4 -6
2 -2 1 8 2 -5 -2 0 6 3 -1 -0 1 -8 -2 -0 0 1 -0 -3 -3 5 -4 -1 1 -19 -9 6 5 1 -0 2 1 -5 -6 -4 -3 -10
1 -1 -2 -4 3 3 6 9 7 5 6 -0 2 -5 -4 -2 -1 0 -6 -1 2 0 -10 -12 -6 -7 -8 -32 11 -1 -7 -2 -8 -5 -1 0 1 3
2 2 6 6 7 11 8 2 1 -4 -4 -1 -5 3 5 -5 -4 -3 0 -4 -9 -1 -5 -8 -8 -9 -8 -8 -18 2 -1 -4 -7 -9 -4 -1 0 1
10 9 10 11 7 5 4 -0 -3 -11 -5 -2 1 -0 1 -1 -1 -5 -2 -5 -6 -3 -5 -4 -8 -2 -8 -10 -21 -7 -34 -10 6 -9 -5 -0 -5 -3
24 3 1 -1 0 -5 3 -6 -1 1 -1 -2 7 1 -3 -7 -2 -1 -0 -5 6 -2 -10 -5 -6 -11 -6 -0 -1 -15 -0 -15 -10 3 -8 -0 3 0
-14 8 5 0 0 -6 -3 -2 2 -2 0 -0 -3 -4 -5 -5 0 -3 -6 -1 -7 -5 2 0 -5 -2 3 -3 -3 -8 -8 8 3 -7 -14 -6 20 -7
-1 -1 1 -4 -6 -3 -0 4 1 -3 -2 -6 -4 -4 1 -6 0 -3 -8 -3 -3 -10 -8 -5 -5 -2 11 15 -9 -23 3 -9 -2 -1 -1 -10 -2 -2
-5 4 -4 -2 -4 -1 -2 3 -2 -3 -1 2 -4 -7 -3 -2 -5 -3 -3 -5 -9 -5 -1 -4 -4 -9 -6 -8 7 -38 -15 -1 -0 2 -3 -1 -2 -2
-1 -0 -1 0 -1 -1 1 -2 -2 -4 -3 -3 -1 -5 -3 1 -1 -7 -7 -8 -7 3 1 -4 -2 -8 -14 -15 -23 -0 -7 -7 -5 -1 -0 6 -4 -5
0 0 1 0 0 -4 -2 -2 -0 -2 0 -2 1 -2 -3 -3 -7 -9 -2 -4 -6 -2 -3 1 -4 -8 -6 2 4 -4 -1 -8 -8 -7 -0 -4 -4 -4
-3 -0 2 0 -0 -3 -0 -2 2 -2 -1 1 -1 -4 -6 -3 -5 -5 -7 -8 -5 -4 3 -3 -2 -3 -3 -7 -6 -5 -2 2 0 -2 -3 6 0 -11
-1 4 -1 -1 -2 -1 1 -1 -4 -1 -1 -2 -3 -3 -1 -3 -3 -4 -11 -10 -5 3 -0 1 -1 -5 -8 -4 -4 -2 -5 2 -1 2 -8 -2 -3 -2
Height
3083 3088 3093 3096 3100 3103 3107 3110 3112 3113 3116 3118 3119 3118 3116 3115 3114 3115 3114 3114 3112 3110 3109 3107 3105 3101 3099 3096 3093 3091 3088 3085 3081 3079 3076 3073 3071 3068
3074 3080 3086 3089 3093 3097 3100 3102 3104 3107 3107 3111 3112 3110 3110 3109 3109 3108 3106 3104 3103 3101 3100 3096 3093 3091 3087 3085 3081 3079 3075 3073 3069 3065 3061 3058 3055 3051
3070 3075 3079 3083 3087 3091 3093 3094 3097 3100 3100 3103 3102 3103 3102 3101 3100 3099 3098 3096 3093 3091 3089 3087 3084 3080 3076 3073 3070 3067 3062 3057 3053 3049 3044 3041 3037 3034
3066 3071 3073 3077 3081 3085 3086 3088 3091 3093 3094 3095 3095 3094 3093 3093 3092 3091 3089 3087 3083 3081 3078 3075 3072 3068 3064 3059 3055 3051 3046 3040 3036 3031 3027 3023 3018 3013
3060 3066 3070 3073 3076 3078 3081 3083 3083 3085 3086 3087 3087 3086 3086 3083 3081 3081 3079 3076 3072 3069 3066 3062 3057 3053 3049 3043 3038 3033 3027 3020 3015 3011 3005 3001 2996 2992
3058 3062 3065 3067 3070 3072 3075 3077 3078 3079 3079 3080 3079 3078 3077 3076 3073 3071 3067 3064 3061 3056 3052 3047 3043 3037 3033 3027 3021 3014 3009 3002 2996 2991 2985 2979 2973 2968
3054 3056 3059 3063 3065 3067 3068 3069 3070 3071 3071 3070 3070 3068 3066 3064 3061 3059 3056 3053 3048 3043 3039 3033 3029 3023 3018 3012 3005 2998 2992 2984 2977 2970 2963 2956 2951 2946
3048 3052 3055 3057 3059 3060 3062 3063 3064 3064 3063 3061 3060 3058 3055 3050 3049 3046 3042 3040 3035 3030 3026 3023 3017 3009 3004 2997 2989 2982 2974 2966 2957 2948 2941 2934 2926 2920
3043 3046 3049 3051 3053 3054 3055 3056 3056 3055 3053 3051 3049 3046 3043 3039 3036 3032 3028 3024 3019 3014 3010 3006 3000 2994 2987 2979 2971 2963 2954 2944 2935 2926 2917 2909 2901 2894
3038 3040 3042 3043 3044 3045 3046 3045 3045 3044 3041 3039 3037 3034 3030 3026 3023 3020 3017 3013 3007 2999 2993 2986 2979 2972 2964 2957 2951 2944 2934 2925 2915 2905 2896 2886 2876 2869
3032 3033 3035 3035 3036 3037 3036 3036 3034 3032 3029 3027 3024 3022 3020 3016 3012 3009 3004 2999 2993 2986 2979 2970 2962 2952 2946 2938 2930 2923 2913 2902 2890 2880 2872 2863 2856 2848
3026 3027 3028 3028 3028 3027 3025 3023 3022 3019 3017 3014 3012 3010 3007 3005 3001 2996 2991 2984 2978 2970 2961 2954 2947 2937 2927 2918 2908 2900 2889 2879 2871 2865 2856 2848 2840 2830
3019 3020 3020 3019 3018 3016 3014 3011 3009 3009 3007 3005 3004 3001 2998 2995 2989 2984 2979 2973 2965 2955 2946 2937 2929 2921 2911 2899 2891 2885 2875 2864 2857 2851 2844 2836 2828 2818
3012 3011 3008 3005 3005 3004 3002 3003 3003 3001 2999 2996 2995 2993 2988 2985 2982 2977 2968 2959 2951 2942 2933 2926 2916 2905 2896 2889 2880 2875 2866 2856 2846 2837 2828 2821 2814 2806
3000 2998 2998 2996 2996 2998 2999 2997 2994 2993 2993 2993 2988 2985 2982 2978 2971 2964 2958 2951 2943 2935 2926 2915 2907 2900 2892 2883 2872 2864 2849 2849 2837 2827 2819 2810 2800 2792
2989 2990 2992 2993 2993 2990 2987 2987 2988 2989 2987 2985 2982 2977 2971 2966 2961 2956 2951 2947 2939 2929 2918 2910 2903 2896 2888 2879 2867 2857 2851 2837 2832 2822 2811 2802 2793 2784
2986 2986 2984 2985 2985 2985 2986 2986 2984 2982 2980 2978 2974 2968 2962 2958 2953 2948 2941 2936 2926 2919 2914 2908 2900 2890 2881 2873 2865 2856 2847 2837 2826 2814 2805 2795 2788 2777
2981 2981 2980 2980 2982 2983 2982 2980 2978 2976 2973 2968 2964 2960 2957 2953 2947 2940 2934 2928 2921 2914 2907 2897 2890 2885 2880 2872 2861 2851 2844 2836 2825 2815 2804 2793 2785 2776
2975 2976 2977 2978 2978 2978 2977 2975 2971 2968 2964 2960 2957 2955 2950 2944 2940 2934 2929 2923 2918 2912 2901 2893 2885 2880 2875 2868 2862 2851 2843 2837 2828 2819 2807 2797 2788 2781
2975 2976 2976 2974 2972 2971 2970 2968 2964 2961 2958 2955 2950 2946 2943 2938 2934 2931 2925 2917 2913 2908 2899 2893 2885 2879 2876 2870 2863 2856 2846 2838 2829 2821 2813 2805 2796 2788
2972 2971 2969 2968 2966 2966 2963 2960 2956 2954 2951 2948 2944 2940 2938 2935 2929 2925 2920 2913 2909 2904 2897 2891 2885 2882 2879 2875 2868 2862 2853 2844 2836 2828 2821 2812 2804 2797
2966 2966 2964 2962 2960 2957 2955 2953 2951 2948 2945 2943 2940 2936 2933 2930 2924 2920 2916 2912 2907 2901 2895 2890 2886 2884 2881 2875 2871 2866 2859 2852 2846 2839 2832 2826 2820 2813
2961 2960 2957 2955 2953 2952 2951 2948 2945 2944 2941 2938 2935 2932 2929 2925 2921 2917 2913 2909 2904 2898 2894 2891 2888 2885 2882 2878 2873 2868 2863 2857 2850 2845 2841 2836 2831 2826